Lid_Strength_Index
10 11 12 13 15 15 16 15 15 15 15 15 15 15 15 16 17 17 18 19 19 19
13 14 15 15 15 16 16 16 16 17 17 17 17 17 18 19 19 19 20 20 20 20
15 15 16 17 17 18 18 18 18 18 18 19 19 19 19 20 20 21 21 20 21 21
17 17 18 18 18 18 19 19 19 20 20 20 20 20 20 20 20 21 21 21 21 21
17 18 19 20 19 19 19 18 19 19 20 20 20 21 21 21 21 22 22 22 22 22
18 19 19 19 19 19 20 20 20 20 21 21 21 21 21 22 22 23 23 23 22 22
19 19 19 19 19 19 20 20 21 21 22 22 22 22 22 22 22 22 22 21 21 20
19 19 19 19 19 19 20 20 20 20 20 20 20 21 21 21 21 21 21 21 20 20
19 20 20 20 20 20 20 20 19 19 19 19 17 16 17 19 21 21 21 21 21 20
21 21 21 21 20 20 20 18 19 18 18 18 17 16 17 18 20 22 22 22 22 21
21 21 20 20 20 20 19 19 19 18 18 18 17 16 17 19 21 22 23 23 23 22
20 20 20 20 21 20 20 20 20 19 20 18 18 16 17 19 21 22 23 23 23 23
20 20 21 21 21 20 20 20 20 20 20 20 19 16 17 19 21 23 23 23 23 21
21 21 21 21 21 21 21 21 22 22 22 22 21 19 17 18 21 23 24 24 25 24